Time,TemperatureF,DewpointF,PressureIn,WindDirection,WindDirectionDegrees,WindSpeedMPH,WindSpeedGustMPH,Humidity,HourlyPrecipIn,Conditions,Clouds,dailyrainin,SolarRadiationWatts/m^2,SoftwareType,DateUTC
2013-10-10 00:00:00,54.1,53.0,30.32,South,175,0.0,4.0,96,0.01,,SCT,0.00,0.00,VWS V14.01,2013-10-10 04:00:00,
2013-10-10 00:01:00,54.1,53.0,30.32,SSE,161,0.0,2.0,96,0.00,,SCT,0.00,0.00,VWS V14.01,2013-10-10 04:01:00,
2013-10-10 00:06:00,54.0,52.9,30.32,SSE,161,0.0,12.0,96,0.01,,SCT,0.01,0.00,VWS V14.01,2013-10-10 04:06:00,
2013-10-10 00:11:00,54.0,52.9,30.32,SSE,148,0.0,12.0,96,0.01,,SCT,0.01,0.00,VWS V14.01,2013-10-10 04:11:00,
2013-10-10 00:16:00,54.0,52.9,30.32,SSE,153,0.0,12.0,96,0.01,,SCT,0.01,0.00,VWS V14.01,2013-10-10 04:16:00,
2013-10-10 00:21:00,54.0,52.9,30.32,SSE,155,0.0,12.0,96,0.01,,SCT,0.01,0.00,VWS V14.01,2013-10-10 04:21:00,
2013-10-10 00:26:00,54.0,52.9,30.31,South,171,0.0,12.0,96,0.01,,SCT,0.01,0.00,VWS V14.01,2013-10-10 04:26:00,
2013-10-10 00:31:00,54.0,52.9,30.31,SE,132,0.0,12.0,96,0.01,,SCT,0.01,0.00,VWS V14.01,2013-10-10 04:31:00,
2013-10-10 00:36:00,54.0,52.9,30.31,SE,126,0.0,12.0,96,0.01,,SCT,0.01,0.00,VWS V14.01,2013-10-10 04:36:00,
2013-10-10 00:41:00,54.1,53.0,30.31,SE,140,0.0,12.0,96,0.01,,SCT,0.01,0.00,VWS V14.01,2013-10-10 04:41:00,
2013-10-10 00:46:00,54.1,53.0,30.30,SE,127,0.0,12.0,96,0.01,,SCT,0.01,0.00,VWS V14.01,2013-10-10 04:46:00,
2013-10-10 00:51:00,54.1,53.0,30.30,SE,133,0.0,12.0,96,0.01,,SCT,0.01,0.00,VWS V14.01,2013-10-10 04:51:00,
2013-10-10 00:56:00,54.1,53.0,30.30,SSE,151,0.0,0.0,96,0.01,,SCT,0.01,0.00,VWS V14.01,2013-10-10 04:56:00,
2013-10-10 01:00:00,54.1,53.0,30.30,SSE,149,0.0,12.0,96,0.01,,SCT,0.01,0.00,VWS V14.01,2013-10-10 05:00:00,
2013-10-10 01:01:00,54.1,53.0,30.30,SSE,155,0.0,0.0,96,0.02,,SCT,0.02,0.00,VWS V14.01,2013-10-10 05:01:00,
2013-10-10 01:06:00,54.2,53.1,30.30,SE,136,0.0,0.0,96,0.02,,SCT,0.02,0.00,VWS V14.01,2013-10-10 05:06:00,
2013-10-10 01:11:00,54.2,53.1,30.30,SE,146,0.0,0.0,96,0.02,,SCT,0.02,0.00,VWS V14.01,2013-10-10 05:11:00,
2013-10-10 01:16:00,54.2,52.8,30.30,South,175,0.0,0.0,95,0.02,,SCT,0.02,0.00,VWS V14.01,2013-10-10 05:16:00,
2013-10-10 01:21:00,54.2,52.8,30.30,South,184,0.0,0.0,95,0.02,,SCT,0.02,0.00,VWS V14.01,2013-10-10 05:21:00,
2013-10-10 01:26:00,54.3,52.9,30.29,SE,134,0.0,0.0,95,0.02,,SCT,0.02,0.00,VWS V14.01,2013-10-10 05:26:00,
2013-10-10 01:31:00,54.4,53.0,30.29,SE,142,0.0,0.0,95,0.02,,SCT,0.02,0.00,VWS V14.01,2013-10-10 05:31:00,
2013-10-10 01:36:00,54.5,52.8,30.29,SE,138,0.0,0.0,94,0.02,,SCT,0.02,0.00,VWS V14.01,2013-10-10 05:36:00,
2013-10-10 01:41:00,54.5,52.8,30.29,SSE,153,0.0,0.0,94,0.02,,SCT,0.02,0.00,VWS V14.01,2013-10-10 05:41:00,
2013-10-10 01:46:00,54.6,52.6,30.29,SSE,151,0.0,0.0,93,0.02,,SCT,0.02,0.00,VWS V14.01,2013-10-10 05:46:00,
2013-10-10 01:51:00,54.6,52.6,30.29,SSE,163,0.0,0.0,93,0.02,,SCT,0.02,0.00,VWS V14.01,2013-10-10 05:51:00,
2013-10-10 01:56:00,54.6,52.6,30.28,South,176,0.0,0.0,93,0.01,,SCT,0.02,0.00,VWS V14.01,2013-10-10 05:56:00,
2013-10-10 02:00:00,54.6,52.6,30.29,South,173,0.0,0.0,93,0.02,,SCT,0.02,0.00,VWS V14.01,2013-10-10 06:00:00,
2013-10-10 02:01:00,54.7,52.7,30.28,SE,143,0.0,0.0,93,0.01,,SCT,0.02,0.00,VWS V14.01,2013-10-10 06:01:00,
2013-10-10 02:06:00,54.7,52.4,30.28,East,92,0.0,0.0,92,0.01,,SCT,0.02,0.00,VWS V14.01,2013-10-10 06:06:00,
2013-10-10 02:11:00,54.7,52.4,30.28,SE,142,0.0,0.0,92,0.01,,SCT,0.02,0.00,VWS V14.01,2013-10-10 06:11:00,
2013-10-10 02:16:00,54.7,52.4,30.28,SSE,161,0.0,0.0,92,0.01,,SCT,0.02,0.00,VWS V14.01,2013-10-10 06:16:00,
2013-10-10 02:21:00,54.8,52.5,30.28,South,180,0.0,0.0,92,0.02,,SCT,0.03,0.00,VWS V14.01,2013-10-10 06:21:00,
2013-10-10 02:26:00,54.8,52.5,30.28,South,170,0.0,0.0,92,0.02,,SCT,0.03,0.00,VWS V14.01,2013-10-10 06:26:00,
2013-10-10 02:31:00,54.8,52.5,30.27,SSE,153,0.0,0.0,92,0.02,,SCT,0.03,0.00,VWS V14.01,2013-10-10 06:31:00,
2013-10-10 02:36:00,54.8,52.5,30.27,SSE,147,0.0,0.0,92,0.02,,SCT,0.03,0.00,VWS V14.01,2013-10-10 06:36:00,
2013-10-10 02:41:00,54.8,52.5,30.27,SSE,159,0.0,0.0,92,0.02,,SCT,0.03,0.00,VWS V14.01,2013-10-10 06:41:00,
2013-10-10 02:46:00,54.9,52.6,30.27,SE,141,0.0,0.0,92,0.02,,SCT,0.03,0.00,VWS V14.01,2013-10-10 06:46:00,
2013-10-10 02:51:00,54.9,52.3,30.27,SSE,163,0.0,0.0,91,0.02,,SCT,0.03,0.00,VWS V14.01,2013-10-10 06:51:00,
2013-10-10 02:56:00,55.0,52.4,30.27,SE,146,0.0,0.0,91,0.01,,SCT,0.03,0.00,VWS V14.01,2013-10-10 06:56:00,
2013-10-10 03:00:00,54.9,52.3,30.27,South,169,0.0,0.0,91,0.02,,SCT,0.03,0.00,VWS V14.01,2013-10-10 07:00:00,
2013-10-10 03:01:00,55.0,52.4,30.27,South,177,0.0,0.0,91,0.01,,SCT,0.03,0.00,VWS V14.01,2013-10-10 07:01:00,
2013-10-10 03:06:00,55.0,52.4,30.26,SSE,150,0.0,0.0,91,0.01,,SCT,0.03,0.00,VWS V14.01,2013-10-10 07:06:00,
2013-10-10 03:11:00,55.0,52.4,30.26,SSE,164,0.0,0.0,91,0.01,,SCT,0.03,0.00,VWS V14.01,2013-10-10 07:11:00,
2013-10-10 03:16:00,55.0,52.4,30.26,SSE,163,0.0,0.0,91,0.02,,SCT,0.04,0.00,VWS V14.01,2013-10-10 07:16:00,
2013-10-10 03:21:00,55.0,52.4,30.26,SSE,159,0.0,0.0,91,0.02,,SCT,0.04,0.00,VWS V14.01,2013-10-10 07:21:00,
2013-10-10 03:26:00,55.0,52.7,30.26,SSE,155,0.0,0.0,92,0.02,,SCT,0.04,0.00,VWS V14.01,2013-10-10 07:26:00,
2013-10-10 03:31:00,55.0,52.7,30.26,South,186,0.0,0.0,92,0.02,,SCT,0.04,0.00,VWS V14.01,2013-10-10 07:31:00,
2013-10-10 03:36:00,55.0,52.7,30.25,SSE,149,0.0,0.0,92,0.02,,SCT,0.04,0.00,VWS V14.01,2013-10-10 07:36:00,
2013-10-10 03:41:00,55.0,52.7,30.25,South,173,0.0,0.0,92,0.02,,SCT,0.04,0.00,VWS V14.01,2013-10-10 07:41:00,
2013-10-10 03:46:00,55.0,52.7,30.25,SSW,211,0.0,0.0,92,0.02,,SCT,0.04,0.00,VWS V14.01,2013-10-10 07:46:00,
2013-10-10 03:51:00,55.0,52.7,30.25,South,186,0.0,0.0,92,0.02,,SCT,0.04,0.00,VWS V14.01,2013-10-10 07:51:00,
2013-10-10 03:56:00,54.9,52.6,30.25,SSE,162,0.0,0.0,92,0.01,,SCT,0.04,0.00,VWS V14.01,2013-10-10 07:56:00,
2013-10-10 04:00:00,54.9,52.6,30.25,South,180,0.0,0.0,92,0.02,,SCT,0.04,0.00,VWS V14.01,2013-10-10 08:00:00,
2013-10-10 04:01:00,54.9,52.6,30.25,South,180,0.0,0.0,92,0.01,,SCT,0.04,0.00,VWS V14.01,2013-10-10 08:01:00,
2013-10-10 04:06:00,54.9,52.6,30.25,South,180,0.0,0.0,92,0.01,,SCT,0.04,0.00,VWS V14.01,2013-10-10 08:06:00,
2013-10-10 04:11:00,54.9,52.6,30.24,South,180,0.0,0.0,92,0.01,,SCT,0.04,0.00,VWS V14.01,2013-10-10 08:11:00,
2013-10-10 04:16:00,54.9,52.6,30.24,ESE,110,0.0,0.0,92,0.01,,SCT,0.04,0.00,VWS V14.01,2013-10-10 08:16:00,
2013-10-10 04:21:00,54.9,52.9,30.24,SSW,196,0.0,0.0,93,0.01,,SCT,0.04,0.00,VWS V14.01,2013-10-10 08:21:00,
2013-10-10 04:26:00,54.9,52.9,30.24,SSW,196,0.0,0.0,93,0.02,,SCT,0.05,0.00,VWS V14.01,2013-10-10 08:26:00,
2013-10-10 04:31:00,54.9,52.9,30.25,South,176,0.0,0.0,93,0.02,,SCT,0.05,0.00,VWS V14.01,2013-10-10 08:31:00,
2013-10-10 04:36:00,54.9,52.9,30.25,ENE,60,0.0,0.0,93,0.02,,SCT,0.05,0.00,VWS V14.01,2013-10-10 08:36:00,
2013-10-10 04:41:00,54.9,53.2,30.25,South,184,0.0,0.0,94,0.02,,SCT,0.05,0.00,VWS V14.01,2013-10-10 08:41:00,
2013-10-10 04:46:00,54.9,53.2,30.24,South,184,0.0,0.0,94,0.02,,SCT,0.05,0.00,VWS V14.01,2013-10-10 08:46:00,
2013-10-10 04:51:00,55.0,53.3,30.24,SE,139,0.0,0.0,94,0.02,,SCT,0.05,0.00,VWS V14.01,2013-10-10 08:51:00,
2013-10-10 04:56:00,55.0,53.3,30.24,SSW,211,0.0,0.0,94,0.01,,SCT,0.05,0.00,VWS V14.01,2013-10-10 08:56:00,
2013-10-10 05:00:00,55.0,53.3,30.24,SE,139,0.0,0.0,94,0.02,,SCT,0.05,0.00,VWS V14.01,2013-10-10 09:00:00,
2013-10-10 05:01:00,55.0,53.3,30.24,SSW,211,0.0,0.0,94,0.01,,SCT,0.05,0.00,VWS V14.01,2013-10-10 09:01:00,
2013-10-10 05:06:00,55.0,53.3,30.24,SSW,211,0.0,0.0,94,0.01,,SCT,0.05,0.00,VWS V14.01,2013-10-10 09:06:00,
2013-10-10 05:11:00,55.1,53.4,30.24,SSW,211,0.0,0.0,94,0.01,,SCT,0.05,0.00,VWS V14.01,2013-10-10 09:11:00,
2013-10-10 05:16:00,55.1,53.4,30.24,SSW,211,0.0,0.0,94,0.02,,SCT,0.06,0.00,VWS V14.01,2013-10-10 09:16:00,
2013-10-10 05:21:00,55.2,53.5,30.24,East,89,0.0,0.0,94,0.02,,SCT,0.06,0.00,VWS V14.01,2013-10-10 09:21:00,
2013-10-10 05:26:00,55.2,53.8,30.23,East,96,0.0,0.0,95,0.02,,SCT,0.06,0.00,VWS V14.01,2013-10-10 09:26:00,
2013-10-10 05:31:00,55.3,53.9,30.24,ENE,76,0.0,0.0,95,0.02,,SCT,0.06,0.00,VWS V14.01,2013-10-10 09:31:00,
2013-10-10 05:36:00,55.3,53.9,30.24,ENE,76,0.0,0.0,95,0.02,,SCT,0.06,0.00,VWS V14.01,2013-10-10 09:36:00,
2013-10-10 05:41:00,55.3,53.9,30.23,ENE,76,0.0,0.0,95,0.02,,SCT,0.06,0.00,VWS V14.01,2013-10-10 09:41:00,
2013-10-10 05:46:00,55.4,54.0,30.23,East,85,0.0,0.0,95,0.02,,SCT,0.06,0.00,VWS V14.01,2013-10-10 09:46:00,
2013-10-10 05:51:00,55.4,54.0,30.23,ENE,76,0.0,0.0,95,0.02,,SCT,0.06,0.00,VWS V14.01,2013-10-10 09:51:00,
2013-10-10 05:56:00,55.5,54.1,30.23,ENE,76,0.0,0.0,95,0.01,,SCT,0.06,0.00,VWS V14.01,2013-10-10 09:56:00,
2013-10-10 06:00:00,55.4,54.0,30.23,ENE,76,0.0,0.0,95,0.02,,SCT,0.06,0.00,VWS V14.01,2013-10-10 10:00:00,
2013-10-10 06:01:00,55.5,54.1,30.23,ENE,76,0.0,0.0,95,0.01,,SCT,0.06,0.00,VWS V14.01,2013-10-10 10:01:00,
2013-10-10 06:06:00,55.5,54.1,30.23,East,87,0.0,0.0,95,0.01,,SCT,0.06,0.00,VWS V14.01,2013-10-10 10:06:00,
2013-10-10 06:11:00,55.6,54.2,30.23,ENE,58,0.0,0.0,95,0.01,,SCT,0.06,0.00,VWS V14.01,2013-10-10 10:11:00,
2013-10-10 06:16:00,55.6,54.2,30.23,ENE,57,0.0,0.0,95,0.01,,SCT,0.06,0.00,VWS V14.01,2013-10-10 10:16:00,
2013-10-10 06:21:00,55.6,54.2,30.23,East,80,0.0,0.0,95,0.01,,SCT,0.06,0.00,VWS V14.01,2013-10-10 10:21:00,
2013-10-10 06:26:00,55.7,54.3,30.23,ESE,103,0.0,0.0,95,0.02,,SCT,0.07,0.00,VWS V14.01,2013-10-10 10:26:00,
2013-10-10 06:31:00,55.7,54.3,30.23,East,84,0.0,0.0,95,0.02,,SCT,0.07,0.00,VWS V14.01,2013-10-10 10:31:00,
2013-10-10 06:36:00,55.7,54.6,30.23,East,98,0.0,0.0,96,0.02,,SCT,0.07,0.00,VWS V14.01,2013-10-10 10:36:00,
2013-10-10 06:41:00,55.8,54.7,30.24,East,88,0.0,0.0,96,0.02,,SCT,0.07,0.00,VWS V14.01,2013-10-10 10:41:00,
2013-10-10 06:46:00,55.8,54.7,30.23,East,92,0.0,0.0,96,0.02,,SCT,0.07,0.00,VWS V14.01,2013-10-10 10:46:00,
2013-10-10 06:51:00,55.8,54.7,30.23,East,92,0.0,0.0,96,0.02,,SCT,0.07,0.00,VWS V14.01,2013-10-10 10:51:00,
2013-10-10 06:56:00,55.9,54.8,30.24,East,92,0.0,0.0,96,0.01,,SCT,0.07,0.00,VWS V14.01,2013-10-10 10:56:00,
2013-10-10 07:00:00,55.8,54.7,30.23,East,92,0.0,0.0,96,0.02,,SCT,0.07,0.00,VWS V14.01,2013-10-10 11:00:00,
2013-10-10 07:01:00,55.9,54.8,30.23,East,94,0.0,0.0,96,0.01,,SCT,0.07,0.00,VWS V14.01,2013-10-10 11:01:00,
2013-10-10 07:06:00,56.0,54.9,30.24,East,94,0.0,0.0,96,0.01,,SCT,0.07,0.00,VWS V14.01,2013-10-10 11:06:00,
2013-10-10 07:11:00,56.0,54.9,30.24,East,94,0.0,0.0,96,0.01,,SCT,0.07,0.00,VWS V14.01,2013-10-10 11:11:00,
2013-10-10 07:16:00,56.0,54.9,30.24,SSW,192,0.0,0.0,96,0.01,,SCT,0.07,0.00,VWS V14.01,2013-10-10 11:16:00,
2013-10-10 07:21:00,56.0,54.9,30.24,SSW,192,0.0,0.0,96,0.02,,SCT,0.08,0.00,VWS V14.01,2013-10-10 11:21:00,
2013-10-10 07:26:00,56.1,55.0,30.24,SSW,192,0.0,0.0,96,0.02,,SCT,0.08,0.00,VWS V14.01,2013-10-10 11:26:00,
2013-10-10 07:31:00,56.0,54.9,30.24,South,188,0.0,0.0,96,0.02,,SCT,0.08,0.00,VWS V14.01,2013-10-10 11:31:00,
2013-10-10 07:36:00,56.0,54.9,30.24,South,188,0.0,0.0,96,0.02,,SCT,0.08,0.00,VWS V14.01,2013-10-10 11:36:00,
2013-10-10 07:41:00,56.0,54.9,30.24,East,79,0.0,0.0,96,0.02,,SCT,0.08,0.00,VWS V14.01,2013-10-10 11:41:00,
2013-10-10 07:46:00,56.0,54.9,30.24,ESE,119,0.0,0.0,96,0.02,,SCT,0.08,5.00,VWS V14.01,2013-10-10 11:46:00,
2013-10-10 07:51:00,56.0,54.9,30.24,ESE,123,0.0,0.0,96,0.02,,SCT,0.08,5.00,VWS V14.01,2013-10-10 11:51:00,
2013-10-10 07:56:00,56.1,55.0,30.24,SE,139,0.0,0.0,96,0.01,,SCT,0.08,7.00,VWS V14.01,2013-10-10 11:56:00,
2013-10-10 08:00:00,56.0,54.9,30.24,ESE,123,0.0,0.0,96,0.02,,SCT,0.08,5.00,VWS V14.01,2013-10-10 12:00:00,
2013-10-10 08:01:00,56.1,55.0,30.24,ESE,121,0.0,0.0,96,0.01,,SCT,0.08,7.00,VWS V14.01,2013-10-10 12:01:00,
2013-10-10 08:06:00,56.1,55.0,30.24,ESE,112,0.0,0.0,96,0.01,,SCT,0.08,7.00,VWS V14.01,2013-10-10 12:06:00,
2013-10-10 08:11:00,56.1,55.0,30.24,ESE,113,0.0,0.0,96,0.01,,SCT,0.08,7.00,VWS V14.01,2013-10-10 12:11:00,
2013-10-10 08:16:00,56.2,55.1,30.24,East,98,0.0,0.0,96,0.01,,SCT,0.08,5.00,VWS V14.01,2013-10-10 12:16:00,
2013-10-10 08:21:00,56.2,55.1,30.24,SE,142,0.0,0.0,96,0.01,,SCT,0.08,7.00,VWS V14.01,2013-10-10 12:21:00,
2013-10-10 08:26:00,56.2,55.1,30.24,ESE,120,0.0,0.0,96,0.01,,SCT,0.08,9.00,VWS V14.01,2013-10-10 12:26:00,
2013-10-10 08:31:00,56.2,55.1,30.24,SE,136,0.0,0.0,96,0.01,,SCT,0.08,9.00,VWS V14.01,2013-10-10 12:31:00,
2013-10-10 08:36:00,56.2,55.1,30.24,East,96,0.0,0.0,96,0.01,,SCT,0.08,9.00,VWS V14.01,2013-10-10 12:36:00,
2013-10-10 08:41:00,56.1,55.0,30.24,SSE,155,0.0,0.0,96,0.01,,SCT,0.08,14.00,VWS V14.01,2013-10-10 12:41:00,
2013-10-10 08:46:00,55.9,54.8,30.24,ESE,109,0.0,0.0,96,0.02,,SCT,0.09,16.00,VWS V14.01,2013-10-10 12:46:00,
2013-10-10 08:51:00,55.9,54.8,30.24,East,100,0.0,0.0,96,0.02,,SCT,0.09,19.00,VWS V14.01,2013-10-10 12:51:00,
2013-10-10 08:56:00,55.8,54.7,30.24,ESE,111,0.0,0.0,96,0.01,,SCT,0.09,25.00,VWS V14.01,2013-10-10 12:56:00,
2013-10-10 09:00:00,55.9,54.8,30.24,East,94,0.0,0.0,96,0.02,,SCT,0.09,19.00,VWS V14.01,2013-10-10 13:00:00,
2013-10-10 09:01:00,55.8,54.7,30.24,ESE,121,0.0,0.0,96,0.01,,SCT,0.09,23.00,VWS V14.01,2013-10-10 13:01:00,
2013-10-10 09:06:00,55.7,54.6,30.24,ESE,115,0.0,0.0,96,0.01,,SCT,0.09,23.00,VWS V14.01,2013-10-10 13:06:00,
2013-10-10 09:11:00,55.7,54.6,30.24,SE,130,0.0,0.0,96,0.01,,SCT,0.09,21.00,VWS V14.01,2013-10-10 13:11:00,
2013-10-10 09:16:00,55.8,54.7,30.24,SE,126,0.0,0.0,96,0.01,,SCT,0.09,26.00,VWS V14.01,2013-10-10 13:16:00,
2013-10-10 09:21:00,55.7,54.6,30.24,ESE,114,0.0,0.0,96,0.01,,SCT,0.09,32.00,VWS V14.01,2013-10-10 13:21:00,
2013-10-10 09:26:00,55.7,54.6,30.24,ESE,104,0.0,0.0,96,0.01,,SCT,0.09,37.00,VWS V14.01,2013-10-10 13:26:00,
2013-10-10 09:31:00,55.7,54.6,30.23,SE,124,0.0,0.0,96,0.01,,SCT,0.09,33.00,VWS V14.01,2013-10-10 13:31:00,
2013-10-10 09:36:00,55.8,54.7,30.24,SE,130,0.0,0.0,96,0.01,,SCT,0.09,30.00,VWS V14.01,2013-10-10 13:36:00,
2013-10-10 09:41:00,55.8,54.7,30.23,ESE,109,0.0,0.0,96,0.01,,SCT,0.09,33.00,VWS V14.01,2013-10-10 13:41:00,
2013-10-10 09:46:00,55.9,54.8,30.23,ESE,112,0.0,0.0,96,0.01,,SCT,0.09,35.00,VWS V14.01,2013-10-10 13:46:00,
2013-10-10 09:51:00,56.0,54.9,30.23,ESE,112,0.0,0.0,96,0.01,,SCT,0.09,40.00,VWS V14.01,2013-10-10 13:51:00,
2013-10-10 09:56:00,56.1,55.0,30.23,ESE,112,0.0,0.0,96,0.01,,SCT,0.10,40.00,VWS V14.01,2013-10-10 13:56:00,
2013-10-10 10:00:00,56.1,55.0,30.23,ESE,112,0.0,0.0,96,0.01,,SCT,0.09,39.00,VWS V14.01,2013-10-10 14:00:00,
2013-10-10 10:01:00,56.2,55.1,30.23,ESE,112,0.0,0.0,96,0.01,,SCT,0.10,46.00,VWS V14.01,2013-10-10 14:01:00,
2013-10-10 10:06:00,56.3,55.2,30.23,ESE,123,0.0,0.0,96,0.01,,SCT,0.10,49.00,VWS V14.01,2013-10-10 14:06:00,
2013-10-10 10:11:00,56.3,55.2,30.23,ESE,116,0.0,0.0,96,0.01,,SCT,0.10,65.00,VWS V14.01,2013-10-10 14:11:00,
2013-10-10 10:16:00,56.4,55.3,30.23,SE,135,0.0,0.0,96,0.01,,SCT,0.10,74.00,VWS V14.01,2013-10-10 14:16:00,
2013-10-10 10:21:00,56.5,55.4,30.23,ESE,123,0.0,0.0,96,0.01,,SCT,0.10,97.00,VWS V14.01,2013-10-10 14:21:00,
2013-10-10 10:26:00,56.6,55.5,30.23,ESE,105,0.0,0.0,96,0.01,,SCT,0.10,104.00,VWS V14.01,2013-10-10 14:26:00,
2013-10-10 10:31:00,56.8,56.0,30.22,ESE,105,0.0,0.0,97,0.01,,SCT,0.10,81.00,VWS V14.01,2013-10-10 14:31:00,
2013-10-10 10:36:00,56.9,56.1,30.22,ESE,123,0.0,0.0,97,0.01,,SCT,0.10,65.00,VWS V14.01,2013-10-10 14:36:00,
2013-10-10 10:41:00,57.0,56.2,30.22,ESE,121,0.0,0.0,97,0.01,,SCT,0.10,69.00,VWS V14.01,2013-10-10 14:41:00,
2013-10-10 10:46:00,57.1,56.3,30.22,ESE,114,0.0,0.0,97,0.01,,SCT,0.10,69.00,VWS V14.01,2013-10-10 14:46:00,
2013-10-10 10:51:00,57.3,56.5,30.22,ESE,115,0.0,0.0,97,0.01,,SCT,0.10,98.00,VWS V14.01,2013-10-10 14:51:00,
2013-10-10 10:56:00,57.4,56.6,30.22,SE,139,0.0,0.0,97,0.01,,SCT,0.10,111.00,VWS V14.01,2013-10-10 14:56:00,
2013-10-10 11:00:00,57.3,56.5,30.22,ESE,114,0.0,0.0,97,0.01,,SCT,0.10,100.00,VWS V14.01,2013-10-10 15:00:00,
2013-10-10 11:01:00,57.5,56.7,30.22,ESE,104,0.0,0.0,97,0.01,,SCT,0.10,116.00,VWS V14.01,2013-10-10 15:01:00,
2013-10-10 11:06:00,57.6,56.8,30.22,ENE,74,0.0,0.0,97,0.01,,SCT,0.10,153.00,VWS V14.01,2013-10-10 15:06:00,
2013-10-10 11:11:00,57.8,57.0,30.21,SE,140,0.0,0.0,97,0.01,,SCT,0.10,162.00,VWS V14.01,2013-10-10 15:11:00,
2013-10-10 11:16:00,57.9,57.1,30.21,SE,132,0.0,0.0,97,0.01,,SCT,0.10,156.00,VWS V14.01,2013-10-10 15:16:00,
2013-10-10 11:21:00,58.0,57.2,30.21,SSE,159,0.0,0.0,97,0.01,,SCT,0.10,163.00,VWS V14.01,2013-10-10 15:21:00,
2013-10-10 11:26:00,58.0,57.2,30.21,SE,140,0.0,0.0,97,0.01,,SCT,0.10,144.00,VWS V14.01,2013-10-10 15:26:00,
2013-10-10 11:31:00,58.0,57.2,30.21,ESE,119,0.0,0.0,97,0.01,,SCT,0.10,123.00,VWS V14.01,2013-10-10 15:31:00,
2013-10-10 11:36:00,58.1,57.3,30.21,SE,145,0.0,0.0,97,0.01,,SCT,0.10,127.00,VWS V14.01,2013-10-10 15:36:00,
2013-10-10 11:41:00,58.2,57.4,30.21,SE,142,0.0,0.0,97,0.01,,SCT,0.10,125.00,VWS V14.01,2013-10-10 15:41:00,
2013-10-10 11:46:00,58.3,57.5,30.21,SSE,148,0.0,0.0,97,0.01,,SCT,0.10,120.00,VWS V14.01,2013-10-10 15:46:00,
2013-10-10 11:51:00,58.4,57.6,30.20,SSE,156,0.0,0.0,97,0.01,,SCT,0.10,104.00,VWS V14.01,2013-10-10 15:51:00,
2013-10-10 11:56:00,58.6,57.8,30.20,ESE,123,0.0,0.0,97,0.01,,SCT,0.11,118.00,VWS V14.01,2013-10-10 15:56:00,
2013-10-10 12:00:00,58.4,57.6,30.20,SSE,153,0.0,0.0,97,0.01,,SCT,0.10,109.00,VWS V14.01,2013-10-10 16:00:00,
2013-10-10 12:01:00,58.7,57.8,30.20,SE,132,0.0,0.0,97,0.01,,SCT,0.11,125.00,VWS V14.01,2013-10-10 16:01:00,
2013-10-10 12:06:00,58.9,58.0,30.20,SSE,156,0.0,0.0,97,0.01,,SCT,0.11,141.00,VWS V14.01,2013-10-10 16:06:00,
2013-10-10 12:11:00,59.1,58.2,30.20,SE,125,0.0,0.0,97,0.01,,SCT,0.11,146.00,VWS V14.01,2013-10-10 16:11:00,
2013-10-10 12:16:00,59.2,58.3,30.20,SE,126,0.0,0.0,97,0.01,,SCT,0.11,163.00,VWS V14.01,2013-10-10 16:16:00,
2013-10-10 12:21:00,59.4,58.5,30.20,ESE,121,0.0,0.0,97,0.01,,SCT,0.11,146.00,VWS V14.01,2013-10-10 16:21:00,
2013-10-10 12:26:00,59.4,58.5,30.20,SE,128,0.0,0.0,97,0.01,,SCT,0.11,123.00,VWS V14.01,2013-10-10 16:26:00,
2013-10-10 12:31:00,59.5,58.7,30.19,SE,142,0.0,0.0,97,0.01,,SCT,0.11,135.00,VWS V14.01,2013-10-10 16:31:00,
2013-10-10 12:36:00,59.5,58.7,30.19,ESE,113,0.0,0.0,97,0.01,,SCT,0.11,162.00,VWS V14.01,2013-10-10 16:36:00,
2013-10-10 12:41:00,59.6,58.8,30.19,SE,136,0.0,0.0,97,0.01,,SCT,0.11,176.00,VWS V14.01,2013-10-10 16:41:00,
2013-10-10 12:46:00,59.8,59.0,30.19,SE,132,0.0,0.0,97,0.01,,SCT,0.11,163.00,VWS V14.01,2013-10-10 16:46:00,
2013-10-10 12:51:00,59.9,59.0,30.19,SE,134,0.0,0.0,97,0.01,,SCT,0.11,181.00,VWS V14.01,2013-10-10 16:51:00,
2013-10-10 12:56:00,60.0,59.2,30.19,ESE,122,0.0,0.0,97,0.01,,SCT,0.11,121.00,VWS V14.01,2013-10-10 16:56:00,
2013-10-10 13:00:00,59.9,59.0,30.19,ESE,122,0.0,0.0,97,0.01,,SCT,0.11,179.00,VWS V14.01,2013-10-10 17:00:00,
2013-10-10 13:01:00,60.0,59.2,30.18,SE,134,0.0,0.0,97,0.01,,SCT,0.11,90.00,VWS V14.01,2013-10-10 17:01:00,
2013-10-10 13:06:00,60.2,59.3,30.18,East,101,0.0,0.0,97,0.02,,SCT,0.12,95.00,VWS V14.01,2013-10-10 17:06:00,
2013-10-10 13:11:00,60.1,59.2,30.18,ESE,121,0.0,0.0,97,0.02,,SCT,0.12,91.00,VWS V14.01,2013-10-10 17:11:00,
2013-10-10 13:16:00,60.1,59.2,30.18,South,171,0.0,0.0,97,0.02,,SCT,0.12,107.00,VWS V14.01,2013-10-10 17:16:00,
2013-10-10 13:21:00,60.2,59.3,30.18,SE,146,0.0,0.0,97,0.02,,SCT,0.12,100.00,VWS V14.01,2013-10-10 17:21:00,
2013-10-10 13:26:00,60.2,59.3,30.18,ESE,119,0.0,0.0,97,0.02,,SCT,0.12,118.00,VWS V14.01,2013-10-10 17:26:00,
2013-10-10 13:31:00,60.2,59.3,30.18,ESE,112,0.0,0.0,97,0.02,,SCT,0.12,111.00,VWS V14.01,2013-10-10 17:31:00,
2013-10-10 13:36:00,60.3,59.5,30.17,SSE,147,0.0,0.0,97,0.02,,SCT,0.12,98.00,VWS V14.01,2013-10-10 17:36:00,
2013-10-10 13:41:00,60.4,59.5,30.17,East,96,0.0,0.0,97,0.02,,SCT,0.12,93.00,VWS V14.01,2013-10-10 17:41:00,
2013-10-10 13:46:00,60.4,59.5,30.17,ESE,121,0.0,0.0,97,0.02,,SCT,0.12,84.00,VWS V14.01,2013-10-10 17:46:00,
2013-10-10 13:51:00,60.4,59.5,30.17,ESE,112,0.0,0.0,97,0.02,,SCT,0.12,116.00,VWS V14.01,2013-10-10 17:51:00,
2013-10-10 13:56:00,60.5,59.7,30.17,ESE,119,0.0,0.0,97,0.01,,SCT,0.12,104.00,VWS V14.01,2013-10-10 17:56:00,
2013-10-10 14:00:00,60.4,59.5,30.17,SE,134,0.0,0.0,97,0.02,,SCT,0.12,104.00,VWS V14.01,2013-10-10 18:00:00,
2013-10-10 14:01:00,60.4,59.5,30.17,SE,126,0.0,0.0,97,0.01,,SCT,0.12,83.00,VWS V14.01,2013-10-10 18:01:00,
2013-10-10 14:06:00,60.3,59.5,30.17,ESE,114,0.0,0.0,97,0.01,,SCT,0.12,81.00,VWS V14.01,2013-10-10 18:06:00,
2013-10-10 14:11:00,60.2,59.3,30.16,ESE,105,0.0,0.0,97,0.01,,SCT,0.12,95.00,VWS V14.01,2013-10-10 18:11:00,
2013-10-10 14:16:00,60.1,59.2,30.16,East,98,0.0,0.0,97,0.01,,SCT,0.12,91.00,VWS V14.01,2013-10-10 18:16:00,
2013-10-10 14:21:00,60.0,59.2,30.16,East,89,0.0,0.0,97,0.01,,SCT,0.12,93.00,VWS V14.01,2013-10-10 18:21:00,
2013-10-10 14:26:00,59.9,58.8,30.16,ESE,120,0.0,0.0,96,0.01,,SCT,0.12,105.00,VWS V14.01,2013-10-10 18:26:00,
2013-10-10 14:31:00,59.8,58.7,30.16,East,98,0.0,0.0,96,0.01,,SCT,0.12,83.00,VWS V14.01,2013-10-10 18:31:00,
2013-10-10 14:36:00,59.7,58.6,30.16,SE,126,0.0,0.0,96,0.02,,SCT,0.13,104.00,VWS V14.01,2013-10-10 18:36:00,
2013-10-10 14:41:00,59.8,58.7,30.16,South,169,0.0,0.0,96,0.02,,SCT,0.13,86.00,VWS V14.01,2013-10-10 18:41:00,
2013-10-10 14:46:00,59.8,58.7,30.16,SE,134,0.0,0.0,96,0.02,,SCT,0.13,116.00,VWS V14.01,2013-10-10 18:46:00,
2013-10-10 14:51:00,59.7,58.6,30.15,ESE,112,0.0,0.0,96,0.02,,SCT,0.13,120.00,VWS V14.01,2013-10-10 18:51:00,
2013-10-10 14:56:00,59.7,58.6,30.16,East,93,0.0,0.0,96,0.01,,SCT,0.13,105.00,VWS V14.01,2013-10-10 18:56:00,
2013-10-10 15:00:00,59.6,58.5,30.16,SSE,164,0.0,0.0,96,0.02,,SCT,0.13,125.00,VWS V14.01,2013-10-10 19:00:00,
2013-10-10 15:01:00,59.6,58.5,30.16,East,96,0.0,0.0,96,0.01,,SCT,0.13,120.00,VWS V14.01,2013-10-10 19:01:00,
2013-10-10 15:06:00,59.6,58.5,30.16,ESE,113,0.0,0.0,96,0.01,,SCT,0.13,98.00,VWS V14.01,2013-10-10 19:06:00,
2013-10-10 15:11:00,59.6,58.5,30.15,SE,128,0.0,0.0,96,0.01,,SCT,0.13,105.00,VWS V14.01,2013-10-10 19:11:00,
2013-10-10 15:16:00,59.6,58.5,30.15,ESE,119,0.0,0.0,96,0.01,,SCT,0.13,93.00,VWS V14.01,2013-10-10 19:16:00,
2013-10-10 15:21:00,59.7,58.6,30.15,ESE,109,0.0,0.0,96,0.01,,SCT,0.13,97.00,VWS V14.01,2013-10-10 19:21:00,
2013-10-10 15:26:00,59.6,58.5,30.15,ESE,105,0.0,0.0,96,0.01,,SCT,0.13,88.00,VWS V14.01,2013-10-10 19:26:00,
2013-10-10 15:31:00,59.7,58.6,30.15,ESE,106,0.0,0.0,96,0.01,,SCT,0.13,84.00,VWS V14.01,2013-10-10 19:31:00,
2013-10-10 15:36:00,59.6,58.5,30.15,East,101,0.0,0.0,96,0.01,,SCT,0.13,67.00,VWS V14.01,2013-10-10 19:36:00,
2013-10-10 15:41:00,59.6,58.5,30.15,SE,128,0.0,0.0,96,0.01,,SCT,0.13,74.00,VWS V14.01,2013-10-10 19:41:00,
2013-10-10 15:46:00,59.7,58.6,30.15,ESE,106,0.0,0.0,96,0.01,,SCT,0.13,65.00,VWS V14.01,2013-10-10 19:46:00,
2013-10-10 15:51:00,59.6,58.5,30.15,SE,127,0.0,0.0,96,0.01,,SCT,0.13,49.00,VWS V14.01,2013-10-10 19:51:00,
2013-10-10 15:56:00,59.5,58.4,30.15,ESE,117,0.0,0.0,96,0.00,,SCT,0.13,56.00,VWS V14.01,2013-10-10 19:56:00,
2013-10-10 16:00:00,59.6,58.5,30.15,ESE,122,0.0,0.0,96,0.01,,SCT,0.13,53.00,VWS V14.01,2013-10-10 20:00:00,
2013-10-10 16:01:00,59.5,58.4,30.15,ESE,102,0.0,0.0,96,0.01,,SCT,0.14,67.00,VWS V14.01,2013-10-10 20:01:00,
2013-10-10 16:06:00,59.5,58.4,30.15,SE,134,0.0,0.0,96,0.01,,SCT,0.14,56.00,VWS V14.01,2013-10-10 20:06:00,
2013-10-10 16:11:00,59.5,58.4,30.15,SE,145,0.0,0.0,96,0.01,,SCT,0.14,60.00,VWS V14.01,2013-10-10 20:11:00,
2013-10-10 16:16:00,59.5,58.4,30.15,SE,124,0.0,0.0,96,0.01,,SCT,0.14,51.00,VWS V14.01,2013-10-10 20:16:00,
2013-10-10 16:21:00,59.4,58.3,30.15,ESE,107,0.0,0.0,96,0.01,,SCT,0.14,44.00,VWS V14.01,2013-10-10 20:21:00,
2013-10-10 16:26:00,59.4,58.3,30.15,SE,138,0.0,0.0,96,0.01,,SCT,0.14,40.00,VWS V14.01,2013-10-10 20:26:00,
2013-10-10 16:31:00,59.4,58.5,30.15,ESE,113,0.0,0.0,97,0.01,,SCT,0.14,39.00,VWS V14.01,2013-10-10 20:31:00,
2013-10-10 16:36:00,59.4,58.5,30.15,East,98,0.0,0.0,97,0.01,,SCT,0.14,35.00,VWS V14.01,2013-10-10 20:36:00,
2013-10-10 16:41:00,59.4,58.5,30.14,ESE,107,0.0,0.0,97,0.01,,SCT,0.14,32.00,VWS V14.01,2013-10-10 20:41:00,
2013-10-10 16:46:00,59.4,58.5,30.14,ESE,117,0.0,0.0,97,0.01,,SCT,0.14,25.00,VWS V14.01,2013-10-10 20:46:00,
2013-10-10 16:51:00,59.4,58.5,30.14,ESE,118,0.0,0.0,97,0.01,,SCT,0.14,18.00,VWS V14.01,2013-10-10 20:51:00,
2013-10-10 16:56:00,59.4,58.5,30.15,ESE,117,0.0,0.0,97,0.01,,SCT,0.14,16.00,VWS V14.01,2013-10-10 20:56:00,
2013-10-10 17:00:00,59.4,58.5,30.14,ESE,104,0.0,0.0,97,0.01,,SCT,0.14,18.00,VWS V14.01,2013-10-10 21:00:00,
2013-10-10 17:01:00,59.4,58.5,30.14,East,101,0.0,0.0,97,0.01,,SCT,0.14,14.00,VWS V14.01,2013-10-10 21:01:00,
2013-10-10 17:06:00,59.4,58.5,30.14,SE,126,0.0,0.0,97,0.01,,SCT,0.14,19.00,VWS V14.01,2013-10-10 21:06:00,
2013-10-10 17:11:00,59.3,58.5,30.14,ESE,117,0.0,0.0,97,0.01,,SCT,0.14,16.00,VWS V14.01,2013-10-10 21:11:00,
2013-10-10 17:16:00,59.3,58.5,30.14,SE,144,0.0,0.0,97,0.01,,SCT,0.14,18.00,VWS V14.01,2013-10-10 21:16:00,
2013-10-10 17:21:00,59.3,58.5,30.14,ESE,119,0.0,0.0,97,0.01,,SCT,0.14,16.00,VWS V14.01,2013-10-10 21:21:00,
2013-10-10 17:26:00,59.2,58.3,30.14,ESE,107,0.0,0.0,97,0.01,,SCT,0.14,12.00,VWS V14.01,2013-10-10 21:26:00,
2013-10-10 17:31:00,59.3,58.5,30.14,ESE,111,0.0,0.0,97,0.01,,SCT,0.14,14.00,VWS V14.01,2013-10-10 21:31:00,
2013-10-10 17:36:00,59.3,58.5,30.14,SE,140,0.0,0.0,97,0.01,,SCT,0.14,18.00,VWS V14.01,2013-10-10 21:36:00,
2013-10-10 17:41:00,59.3,58.5,30.13,ESE,112,0.0,0.0,97,0.01,,SCT,0.14,14.00,VWS V14.01,2013-10-10 21:41:00,
2013-10-10 17:45:00,59.3,58.5,30.14,SSE,153,0.0,0.0,97,0.01,,SCT,0.14,14.00,VWS V14.01,2013-10-10 21:45:00,
2013-10-10 17:50:00,59.3,58.5,30.13,ESE,119,0.0,0.0,97,0.01,,SCT,0.14,11.00,VWS V14.01,2013-10-10 21:50:00,
2013-10-10 17:55:00,59.3,58.5,30.14,SSE,167,0.0,0.0,97,0.00,,SCT,0.14,11.00,VWS V14.01,2013-10-10 21:55:00,
2013-10-10 18:00:00,59.3,58.5,30.14,ESE,118,0.0,0.0,97,0.00,,SCT,0.14,7.00,VWS V14.01,2013-10-10 22:00:00,
2013-10-10 18:05:00,59.3,58.5,30.14,ESE,123,0.0,0.0,97,0.00,,SCT,0.14,0.00,VWS V14.01,2013-10-10 22:05:00,
2013-10-10 18:10:00,59.3,58.5,30.14,ESE,107,0.0,0.0,97,0.00,,SCT,0.14,0.00,VWS V14.01,2013-10-10 22:10:00,
2013-10-10 18:15:00,59.3,58.5,30.13,SE,138,0.0,0.0,97,0.00,,SCT,0.14,0.00,VWS V14.01,2013-10-10 22:15:00,
2013-10-10 18:20:00,59.2,58.3,30.13,SE,144,0.0,0.0,97,0.01,,SCT,0.15,0.00,VWS V14.01,2013-10-10 22:20:00,
2013-10-10 18:25:00,59.2,58.3,30.13,SE,131,0.0,0.0,97,0.01,,SCT,0.15,0.00,VWS V14.01,2013-10-10 22:25:00,
2013-10-10 18:30:00,59.1,58.2,30.14,SE,125,0.0,0.0,97,0.01,,SCT,0.15,0.00,VWS V14.01,2013-10-10 22:30:00,
2013-10-10 18:35:00,59.1,58.2,30.14,SE,125,0.0,0.0,97,0.01,,SCT,0.15,0.00,VWS V14.01,2013-10-10 22:35:00,
2013-10-10 18:40:00,59.2,58.3,30.14,SE,131,0.0,0.0,97,0.01,,SCT,0.15,0.00,VWS V14.01,2013-10-10 22:40:00,
2013-10-10 18:45:00,59.2,58.3,30.13,SE,137,0.0,0.0,97,0.01,,SCT,0.15,0.00,VWS V14.01,2013-10-10 22:45:00,
2013-10-10 18:50:00,59.1,58.2,30.14,ESE,113,0.0,0.0,97,0.01,,SCT,0.15,0.00,VWS V14.01,2013-10-10 22:50:00,
2013-10-10 18:55:00,59.1,58.2,30.14,ESE,116,0.0,0.0,97,0.01,,SCT,0.15,0.00,VWS V14.01,2013-10-10 22:55:00,
2013-10-10 19:00:00,59.1,58.2,30.14,ESE,123,0.0,0.0,97,0.01,,SCT,0.15,0.00,VWS V14.01,2013-10-10 23:00:00,
2013-10-10 19:05:00,59.1,58.2,30.14,SSE,149,0.0,0.0,97,0.01,,SCT,0.15,0.00,VWS V14.01,2013-10-10 23:05:00,
2013-10-10 19:10:00,59.1,58.2,30.14,SSE,149,0.0,0.0,97,0.01,,SCT,0.15,0.00,VWS V14.01,2013-10-10 23:10:00,
2013-10-10 19:15:00,59.1,58.2,30.14,SE,126,0.0,0.0,97,0.01,,SCT,0.15,0.00,VWS V14.01,2013-10-10 23:15:00,
2013-10-10 19:20:00,59.1,58.2,30.14,ESE,114,0.0,0.0,97,0.01,,SCT,0.15,0.00,VWS V14.01,2013-10-10 23:20:00,
2013-10-10 19:25:00,59.1,58.2,30.14,ESE,118,0.0,0.0,97,0.01,,SCT,0.15,0.00,VWS V14.01,2013-10-10 23:25:00,
2013-10-10 19:30:00,59.1,58.2,30.14,SE,130,0.0,0.0,97,0.01,,SCT,0.15,0.00,VWS V14.01,2013-10-10 23:30:00,
2013-10-10 19:35:00,59.1,58.2,30.14,ESE,121,0.0,0.0,97,0.01,,SCT,0.15,0.00,VWS V14.01,2013-10-10 23:35:00,
2013-10-10 19:40:00,59.0,58.2,30.14,ESE,121,0.0,0.0,97,0.01,,SCT,0.15,0.00,VWS V14.01,2013-10-10 23:40:00,
2013-10-10 19:45:00,59.0,58.2,30.14,SE,136,0.0,0.0,97,0.01,,SCT,0.15,0.00,VWS V14.01,2013-10-10 23:45:00,
2013-10-10 19:50:00,59.0,58.2,30.14,SSE,152,0.0,0.0,97,0.01,,SCT,0.15,0.00,VWS V14.01,2013-10-10 23:50:00,
2013-10-10 19:55:00,58.9,58.0,30.13,ESE,122,0.0,0.0,97,0.01,,SCT,0.16,0.00,VWS V14.01,2013-10-10 23:55:00,
2013-10-10 20:00:00,58.9,58.0,30.13,SE,135,0.0,0.0,97,0.01,,SCT,0.16,0.00,VWS V14.01,2013-10-11 00:00:00,
2013-10-10 20:05:00,58.9,58.0,30.13,SE,137,0.0,0.0,97,0.01,,SCT,0.16,0.00,VWS V14.01,2013-10-11 00:05:00,
2013-10-10 20:10:00,58.9,58.0,30.13,SSE,162,0.0,0.0,97,0.01,,SCT,0.16,0.00,VWS V14.01,2013-10-11 00:10:00,
2013-10-10 20:15:00,58.8,58.0,30.13,SSE,154,0.0,0.0,97,0.01,,SCT,0.16,0.00,VWS V14.01,2013-10-11 00:15:00,
2013-10-10 20:20:00,58.8,58.0,30.13,ESE,115,0.0,0.0,97,0.01,,SCT,0.16,0.00,VWS V14.01,2013-10-11 00:20:00,
2013-10-10 20:25:00,58.8,58.0,30.13,ESE,116,0.0,0.0,97,0.01,,SCT,0.16,0.00,VWS V14.01,2013-10-11 00:25:00,
2013-10-10 20:30:00,58.9,58.0,30.13,ESE,116,0.0,0.0,97,0.01,,SCT,0.16,0.00,VWS V14.01,2013-10-11 00:30:00,
2013-10-10 20:35:00,58.9,58.0,30.13,ESE,109,0.0,0.0,97,0.01,,SCT,0.16,0.00,VWS V14.01,2013-10-11 00:35:00,
2013-10-10 20:40:00,58.9,58.0,30.13,ESE,107,0.0,0.0,97,0.01,,SCT,0.16,0.00,VWS V14.01,2013-10-11 00:40:00,
2013-10-10 20:45:00,58.8,58.0,30.13,ESE,119,0.0,0.0,97,0.01,,SCT,0.16,0.00,VWS V14.01,2013-10-11 00:45:00,
2013-10-10 20:50:00,58.8,58.0,30.13,ESE,111,0.0,0.0,97,0.01,,SCT,0.16,0.00,VWS V14.01,2013-10-11 00:50:00,
2013-10-10 20:55:00,58.8,58.0,30.13,SSE,155,0.0,0.0,97,0.01,,SCT,0.16,0.00,VWS V14.01,2013-10-11 00:55:00,
2013-10-10 21:00:00,58.8,58.0,30.13,East,90,0.0,0.0,97,0.01,,SCT,0.16,0.00,VWS V14.01,2013-10-11 01:00:00,
2013-10-10 21:05:00,58.8,58.0,30.13,ESE,113,0.0,0.0,97,0.01,,SCT,0.16,0.00,VWS V14.01,2013-10-11 01:05:00,
2013-10-10 21:10:00,58.7,57.8,30.13,ESE,119,0.0,0.0,97,0.01,,SCT,0.16,0.00,VWS V14.01,2013-10-11 01:10:00,
2013-10-10 21:15:00,58.8,58.0,30.13,ESE,111,0.0,0.0,97,0.01,,SCT,0.16,0.00,VWS V14.01,2013-10-11 01:15:00,
2013-10-10 21:20:00,58.7,57.8,30.13,East,94,0.0,0.0,97,0.02,,SCT,0.17,0.00,VWS V14.01,2013-10-11 01:20:00,
2013-10-10 21:25:00,58.8,58.0,30.13,ESE,114,0.0,0.0,97,0.02,,SCT,0.17,0.00,VWS V14.01,2013-10-11 01:25:00,
2013-10-10 21:30:00,58.7,57.8,30.13,SE,146,0.0,0.0,97,0.02,,SCT,0.17,0.00,VWS V14.01,2013-10-11 01:30:00,
2013-10-10 21:35:00,58.7,57.8,30.13,SE,132,0.0,0.0,97,0.02,,SCT,0.17,0.00,VWS V14.01,2013-10-11 01:35:00,
2013-10-10 21:40:00,58.7,57.8,30.13,SSE,152,0.0,0.0,97,0.02,,SCT,0.17,0.00,VWS V14.01,2013-10-11 01:40:00,
2013-10-10 21:45:00,58.6,57.8,30.13,SE,140,0.0,0.0,97,0.02,,SCT,0.17,0.00,VWS V14.01,2013-10-11 01:45:00,
2013-10-10 21:50:00,58.6,57.8,30.13,ESE,119,0.0,0.0,97,0.02,,SCT,0.17,0.00,VWS V14.01,2013-10-11 01:50:00,
2013-10-10 21:55:00,58.7,57.8,30.13,ESE,107,0.0,0.0,97,0.01,,SCT,0.17,0.00,VWS V14.01,2013-10-11 01:55:00,
2013-10-10 22:00:00,58.6,57.8,30.13,SSE,148,0.0,0.0,97,0.01,,SCT,0.17,0.00,VWS V14.01,2013-10-11 02:00:00,
2013-10-10 22:05:00,58.6,57.8,30.13,SE,144,0.0,0.0,97,0.01,,SCT,0.17,0.00,VWS V14.01,2013-10-11 02:05:00,
2013-10-10 22:10:00,58.6,57.8,30.13,SE,134,0.0,0.0,97,0.02,,SCT,0.18,0.00,VWS V14.01,2013-10-11 02:10:00,
2013-10-10 22:15:00,58.6,57.8,30.12,ESE,117,0.0,0.0,97,0.02,,SCT,0.18,0.00,VWS V14.01,2013-10-11 02:15:00,
2013-10-10 22:20:00,58.6,57.8,30.13,SSE,149,0.0,0.0,97,0.02,,SCT,0.18,0.00,VWS V14.01,2013-10-11 02:20:00,
2013-10-10 22:25:00,58.6,57.8,30.12,SSE,151,0.0,0.0,97,0.02,,SCT,0.18,0.00,VWS V14.01,2013-10-11 02:25:00,
2013-10-10 22:30:00,58.6,57.8,30.12,SSE,149,0.0,0.0,97,0.02,,SCT,0.18,0.00,VWS V14.01,2013-10-11 02:30:00,
2013-10-10 22:35:00,58.6,57.8,30.12,SSE,149,0.0,0.0,97,0.02,,SCT,0.18,0.00,VWS V14.01,2013-10-11 02:35:00,
2013-10-10 22:40:00,58.6,57.8,30.12,SE,141,0.0,0.0,97,0.02,,SCT,0.18,0.00,VWS V14.01,2013-10-11 02:40:00,
2013-10-10 22:45:00,58.6,57.8,30.12,SE,146,0.0,0.0,97,0.02,,SCT,0.18,0.00,VWS V14.01,2013-10-11 02:45:00,
2013-10-10 22:50:00,58.5,57.7,30.12,SE,145,0.0,0.0,97,0.02,,SCT,0.18,0.00,VWS V14.01,2013-10-11 02:50:00,
2013-10-10 22:55:00,58.5,57.7,30.12,ESE,117,0.0,0.0,97,0.01,,SCT,0.18,0.00,VWS V14.01,2013-10-11 02:55:00,
2013-10-10 23:00:00,58.5,57.7,30.12,SE,126,0.0,0.0,97,0.01,,SCT,0.18,0.00,VWS V14.01,2013-10-11 03:00:00,
2013-10-10 23:05:00,58.5,57.7,30.11,SE,137,0.0,0.0,97,0.01,,SCT,0.18,0.00,VWS V14.01,2013-10-11 03:05:00,
2013-10-10 23:10:00,58.5,57.7,30.11,South,173,0.0,0.0,97,0.01,,SCT,0.18,0.00,VWS V14.01,2013-10-11 03:10:00,
2013-10-10 23:15:00,58.5,57.7,30.11,SE,145,0.0,0.0,97,0.02,,SCT,0.19,0.00,VWS V14.01,2013-10-11 03:15:00,
2013-10-10 23:20:00,58.5,57.7,30.11,SE,144,0.0,0.0,97,0.02,,SCT,0.19,0.00,VWS V14.01,2013-10-11 03:20:00,
2013-10-10 23:25:00,58.5,57.7,30.11,SSE,157,0.0,0.0,97,0.02,,SCT,0.19,0.00,VWS V14.01,2013-10-11 03:25:00,
2013-10-10 23:30:00,58.5,57.7,30.11,ESE,116,0.0,0.0,97,0.02,,SCT,0.19,0.00,VWS V14.01,2013-10-11 03:30:00,
2013-10-10 23:35:00,58.5,57.7,30.11,South,173,0.0,0.0,97,0.02,,SCT,0.19,0.00,VWS V14.01,2013-10-11 03:35:00,
2013-10-10 23:40:00,58.5,57.7,30.11,SSE,151,0.0,0.0,97,0.02,,SCT,0.19,0.00,VWS V14.01,2013-10-11 03:40:00,
2013-10-10 23:45:00,58.4,57.6,30.11,SSE,153,0.0,0.0,97,0.02,,SCT,0.19,0.00,VWS V14.01,2013-10-11 03:45:00,
2013-10-10 23:50:00,58.4,57.6,30.10,ESE,121,0.0,0.0,97,0.02,,SCT,0.19,0.00,VWS V14.01,2013-10-11 03:50:00,
2013-10-10 23:55:00,58.4,57.6,30.10,SE,129,0.0,0.0,97,0.02,,SCT,0.00,0.00,VWS V14.01,2013-10-11 03:55:00,